Location: Desvres
(50.6688°N, 1.8348°E)
Time: 22:25:44
(UTC+00:00)

Daily predictions for brighter satellites

Satellite Brightness Start Highest point End
(mag) Time Altitude Azimuth Time Altitude Azimuth Time Altitude Azimuth
Cosmos 1515 Rocket 3.9 16:49:38 10° SSW 16:53:55 69° WNW 16:58:16 10° N
Tsikada Rocket 4.0 16:48:35 10° S 16:54:40 67° E 17:00:47 10° NNE
BlueWalker 3 2.0 16:52:03 10° WNW 16:55:39 55° N 16:59:16 10° E
USA 81 4.1 16:51:35 10° S 16:56:48 68° E 17:02:03 10° N
BREEZE-M DEB (TANK) 2.8 16:55:13 10° SSW 16:57:11 23° SSE 16:59:24 10° E
Cosmos 1455 1.7 16:54:30 10° N 16:57:42 61° ENE 17:00:52 10° SSE
Cosmos 2278 Rocket 2.2 16:52:17 10° NNW 16:57:57 64° ENE 17:03:34 10° SE
COSMO-SKYMED 1 4.1 16:57:41 10° NE 17:00:42 18° E 17:03:42 10° SE
Cosmos 2219 Rocket 2.5 16:55:33 10° SW 17:01:06 67° WNW 17:06:44 10° NNE
ARGOS Delta rocket 3.8 16:58:15 10° SSE 17:02:46 56° ENE 17:07:09 10° N
ISS -1.9 17:00:35 10° SSW 17:03:06 20° SE 17:05:39 10° E
Cosmos 2084 Rocket 4.4 17:00:03 10° NW 17:04:01 49° SW 17:07:52 10° SSE
CZ-4C R/B 3.4 17:01:46 10° SSE 17:04:34 16° ESE 17:07:44 10° ENE
CSL-04 DEB 4.2 17:02:52 10° SSE 17:06:40 61° ENE 17:10:25 10° N
Meteor 1-21 4.3 17:03:41 10° S 17:09:09 57° E 17:14:41 10° NNE
Cosmos 1758 4.2 17:06:20 10° NNW 17:10:06 52° W 17:13:52 10° S
USA 306 2.3 17:08:57 10° WNW 17:10:50 32° N 17:12:55 12° ENE
SL-14 R/B 3.8 17:07:37 10° SSW 17:11:20 60° WNW 17:15:06 10° N
CORIOLIS 4.3 17:06:09 10° SSE 17:11:35 88° WSW 17:17:04 10° NNW
Cosmos 1763 Rocket 3.6 17:07:04 10° S 17:12:08 55° ESE 17:17:10 10° NNE
Spot 4 Rocket 4.0 17:08:00 10° SSE 17:13:07 77° ENE 17:18:16 10° NNW
Cosmos 1733 Rocket 3.3 17:09:33 10° N 17:13:49 46° ENE 17:18:03 10° SSE
YAOGAN 1 3.7 17:10:46 10° ESE 17:14:00 21° ENE 17:17:15 10° NNE
Cosmos 540 Rocket 3.7 17:12:57 10° S 17:17:52 48° ESE 17:22:48 10° NNE
Landsat 7 4.3 17:15:43 10° SE 17:20:01 37° ENE 17:24:20 10° N
Cosmos 2322 3.8 17:14:45 10° SSW 17:20:29 87° WNW 17:26:16 10° NNE
Cosmos 468 Rocket 4.4 17:16:58 10° S 17:21:48 41° ESE 17:26:38 10° NE
USA 215 3.4 17:16:13 10° ENE 17:22:43 69° NNW 17:29:11 10° WSW
Cosmos 2228 Rocket 3.5 17:21:28 10° SSE 17:25:45 43° E 17:30:05 10° NNE
Cosmos 2279 Rocket 3.9 17:19:43 10° N 17:25:56 76° ENE 17:32:08 10° SSE
NOSS 8 (A) 4.1 17:25:05 10° NW 17:27:59 86° SW 17:31:20 10° SE
Cosmos 1656 Rocket 4.5 17:23:25 10° NNW 17:28:10 29° NE 17:32:57 10° ESE
Cosmos 1980 Rocket 4.5 17:26:38 10° NNW 17:28:11 11° NNW 17:29:44 10° N
Cosmos 1898 Rocket 3.6 17:23:25 10° NNW 17:28:38 55° ENE 17:33:50 10° SE
Cosmos 841 Rocket 4.5 17:27:07 10° SSE 17:31:25 26° E 17:35:00 13° NE
Aureole 1 Rocket 4.3 17:24:54 10° NNW 17:32:40 72° ENE 17:39:40 10° SSE
PSLV R/B 3.6 17:29:50 10° S 17:33:53 76° WSW 17:38:00 10° NNW
Okean 1-7 3.7 17:35:40 10° SSE 17:39:28 32° E 17:43:17 10° NNE
Cosmos 1980 3.8 17:34:15 10° S 17:39:43 54° ESE 17:44:57 11° NE
SL-16 R/B 3.6 17:36:09 10° SE 17:39:44 17° E 17:40:55 16° E
NOSS 8 (E) 4.5 17:38:38 10° SW 17:42:41 71° SE 17:44:41 22° NE
Cosmos 1953 2.1 17:38:57 10° N 17:42:42 89° E 17:46:25 10° S
SMAP 4.2 17:38:34 10° S 17:43:03 47° W 17:47:35 10° NNW
SKYMED 2 3.8 17:44:51 10° NNE 17:49:06 49° E 17:53:18 10° S
NOSS 0 Rocket 3.9 17:43:27 10° SSW 17:49:36 81° ESE 17:55:40 11° NNE
Cosmos 1818 3.7 17:45:56 10° NW 17:51:19 54° NE 17:56:19 12° ESE
ATLAS 2AS CENTAUR R/B 2.7 17:46:06 10° NW 17:52:52 58° NE 17:59:05 12° ESE
SL-16 R/B 4.4 17:48:50 10° N 17:53:51 26° NW 17:58:51 10° WSW
Cosmos 2369 Rocket 2.9 17:49:21 10° NNW 17:54:19 31° NE 17:56:55 21° E
NOSS 8 (H) 4.3 17:50:31 10° SW 17:54:24 79° SE 17:55:55 29° NE
Resurs 01 Rocket 3.7 17:57:26 12° NNE 17:57:26 12° NNE 17:58:03 10° NNE
ACS3 Solar Sail 1.9 17:50:33 10° SSE 17:56:51 64° ENE 18:03:10 10° N
COSMOS 2428 3.2 17:51:19 10° SW 17:56:57 60° NW 18:02:36 10° NNE
IGS 5A 4.3 17:53:49 10° S 17:57:44 51° W 18:01:41 10° NNW
Cosmos 372 Rocket 3.9 17:53:36 10° NNW 17:58:43 88° ENE 18:03:48 10° SSE
Cosmos 2333 Rocket 4.1 17:54:35 10° W 17:58:54 22° NW 18:03:15 10° NNE
DNEPR-1 R/B 4.3 17:58:46 10° NW 18:03:34 56° WSW 18:07:45 10° SSE
BREEZE-M DEB (TANK) 3.5 17:56:36 10° WSW 18:05:39 76° S 18:07:22 31° E
Cosmos 1908 Rocket 3.6 18:02:39 10° N 18:06:55 52° ENE 18:11:07 10° SSE
Cosmos 2322 Rocket 4.3 18:04:30 10° WNW 18:08:16 18° NNW 18:12:03 10° N
Cosmos 2360 Rocket 4.3 18:07:04 10° W 18:11:07 20° NW 18:15:11 10° NNE
EO 1 Delta rocket 3.7 18:08:15 10° NNE 18:13:02 71° E 18:17:39 10° S
Meteor 1-31 Rocket 2.4 18:09:32 10° SSE 18:13:05 85° ENE 18:16:42 10° NNW
Okean 3 4.0 18:09:37 10° SSW 18:13:40 58° WNW 18:17:46 10° N
Cosmos 1707 Rocket 4.0 18:10:04 10° SSW 18:14:28 65° WNW 18:18:54 10° N
Okean 2 3.7 18:13:32 10° SSW 18:17:27 64° WNW 18:21:25 10° N
Cosmos 2297 4.0 18:12:04 10° NNW 18:17:36 46° NE 18:20:17 28° ESE
Cosmos 1937 Rocket 3.5 18:13:33 10° NNW 18:18:43 85° WSW 18:23:53 10° SSE
SL-16 R/B 4.5 18:16:15 10° NW 18:18:55 13° NNW 18:21:36 10° N
CZ-2C R/B 2.4 18:22:18 57° NE 18:22:18 57° NE 18:25:18 10° N
Cosmos 2026 Rocket 4.2 18:17:10 10° SSE 18:23:13 48° E 18:29:17 10° NNE
Cosmos 858 Rocket 4.4 18:18:03 10° NNW 18:23:18 83° ENE 18:28:32 10° SSE
BREEZE-M DEB (TANK) 3.6 18:12:46 10° WSW 18:26:59 62° SSE 18:28:56 36° E
Cosmos 1943 Rocket 3.5 18:22:10 10° NW 18:27:26 40° WSW 18:32:38 10° S
RESURS DK-1 4.2 18:24:40 10° NW 18:28:15 31° WSW 18:31:48 10° S
Cosmos 1428 Rocket 4.4 18:23:51 10° S 18:30:00 70° E 18:36:08 10° NNE
YAOGAN 3 4.4 18:26:52 10° SSE 18:31:08 87° ENE 18:35:25 10° NNW
BlueWalker 3 1.6 18:29:57 10° WNW 18:33:37 84° SSW 18:33:53 75° SE
Cosmos 2237 Rocket 2.4 18:28:10 10° SW 18:33:50 71° WNW 18:37:59 19° NNE
COSMO-SKYMED 1 3.1 18:32:57 10° N 18:37:14 58° WNW 18:41:30 10° SSW
CZ-4B R/B 4.5 18:35:29 10° S 18:38:59 49° W 18:42:26 10° NNW
ISS -3.4 18:36:07 10° WSW 18:39:01 60° SW 18:39:01 60° SW
Cosmos 2278 Rocket 4.4 18:37:01 10° NW 18:41:35 26° WSW 18:46:07 10° SSW
USA 306 3.9 18:39:45 10° WNW 18:40:49 23° WNW 18:40:49 23° WNW
Cosmos 1782 Rocket 3.9 18:38:25 10° N 18:41:42 46° NNE 18:41:42 46° NNE
Cosmos 2344 3.8 18:36:48 10° WSW 18:44:06 61° NW 18:48:48 24° NE
Cosmos 2219 Rocket 4.3 18:42:14 10° WNW 18:46:09 19° NW 18:50:05 10° N
YAOGAN 1 3.3 18:45:27 10° S 18:49:37 51° W 18:53:48 10° NNW
YAOGAN 11 3.9 18:51:31 77° SE 18:51:31 77° SE 18:55:35 10° SSW
CZ-4C R/B 1.8 18:47:15 10° SW 18:51:47 85° NW 18:53:04 52° NE
Nadezhda 4 Rocket 4.3 18:47:32 10° SSW 18:53:36 65° WNW 18:59:45 10° N
ATLAS 5 CENTAUR R/B 2.7 18:53:18 10° SSW 18:54:39 23° SSW 18:54:39 23° SSW
Cosmos 2195 Rocket 4.4 18:51:55 10° S 18:58:07 87° WNW 19:04:18 10° N
Meteor 1-24 Rocket 3.8 18:52:23 10° S 18:58:08 57° E 18:58:08 57° E
CZ-4B R/B 4.4 19:00:45 27° NNE 19:00:45 27° NNE 19:03:23 10° N
SPOT 1/Viking Rocket 3.8 18:55:45 10° S 19:00:53 68° WSW 19:06:02 10° NNW
Cosmos 1703 Rocket 3.7 18:56:42 10° SSW 19:01:09 72° WNW 19:02:12 50° NNW
USA 215 3.6 19:03:32 41° NE 19:05:19 52° N 19:11:36 10° WNW
Resurs 1-3 4.1 19:01:07 10° S 19:05:23 57° W 19:09:40 10° NNW
Meteor 2-5 Rocket 4.0 19:03:03 10° S 19:07:38 53° SSE 19:07:38 53° SSE
Cosmos 1656 Rocket 3.9 19:06:43 10° NW 19:12:08 64° WSW 19:14:50 30° S
Cosmos 841 Rocket 4.1 19:07:46 10° SW 19:12:55 54° WNW 19:15:03 33° N
SL-16 R/B 2.1 19:17:21 10° SSW 19:22:50 84° SW 19:22:50 84° SW
Cosmos 1553 Rocket 3.8 19:17:32 10° N 19:23:43 84° E 19:23:51 83° ESE
ADEOS 3.7 19:29:31 70° WNW 19:29:31 70° WNW 19:34:29 10° NNW
Resurs 01 Rocket 4.0 19:34:51 15° NNW 19:34:51 15° NNW 19:35:35 10° NNW
Cosmos 2369 Rocket 2.5 19:33:11 10° NW 19:38:42 61° WSW 19:38:45 61° WSW
Cosmos 1092 Rocket 4.5 19:33:35 10° SSW 19:39:39 57° WNW 19:45:49 10° N
ACS3 Solar Sail 3.7 19:35:27 10° SSW 19:40:51 28° W 19:46:17 10° NNW
ATLAS 2AS CENTAUR R/B 3.6 19:37:18 10° NW 19:43:38 44° WSW 19:46:35 28° S
Cosmos 2237 Rocket 4.3 20:14:50 10° W 20:18:57 20° NW 20:19:48 19° NNW
CZ-4C R/B 4.4 20:36:27 10° W 20:38:08 19° WNW 20:38:08 19° WNW
